Minot International Airport
KMOT : now visible

Airfield :











YOU CAN JOIN US ON...

 
LOGIN :

Register | Disclaimer

   EN    FR    IT 

 









Legend :    VFR   Marginal VFR   IFR   Intensive IFR   Very Intensive IFR
Visi :
Ceiling :
>= 8 km
>= 3000ft
5 to 8 km
1000 to 3000 ft
1500m to 5 km
500 to 1000 ft
800 to 1500m
200 to 500 ft
< 800m
< 200 ft
Symbols :   Thunderstorms  Fog  Heavy snow  Heavy precipitations  Wind > 20 kt






- Airport Elevation : 1716 ft
- IATA code : MOT


KMOT - Minot International

CURRENT METAR :
  • 181954Z 15018G30KT 10SM CLR 28/09 A2972 RMK AO2 PK WND 16030/1953 SLP057 T02830089

EXPIRED METARs :
  • 181854Z 16014G29KT 10SM CLR 28/10 A2975 RMK AO2 PK WND 17029/1849 SLP067 T02780100

TAF KMOT
Valid from the 18 at 18:00 until the 19 at 18:00 UTC


181739Z 1818/1918 16018G28KT P6SM SCT040
FM190200 15015G21KT P6SM SCT060
FM190800 20014KT P6SM VCSH SCT020
FM191000 27009KT P6SM SCT060
FM191600 34013G24KT P6SM SCT120
KZMP FIR / North America



MET'MAP, your aeronautical weather chart ! - Copyright ORBIFLY December 2007 - Disclaimer

ORBIFLY MET'MAP TEAM :

Programming & Development : Alexandra Zaïnal
Concept & original design : Baudouin d'Aumeries
Assistance for programming : Marc-Olivier Méhu
Technical & hardware support : Manuel Goepfert

Contact : metmap@orbifly.com




SOURCES & CREDITS :

   NOAA       Earth
Advisory